Temp
74 74 73 72 72 72 72 72 72 70 71 70 71 70 69 68 67 68 66 68 67 68
74 74 73 72 69 70 71 72 70 69 69 70 70 69 69 68 68 67 67 67 67 67
72 73 73 69 69 67 67 68 68 68 69 69 70 70 69 68 69 67 67 67 66 66
68 67 67 67 68 69 68 71 71 71 71 70 69 70 69 68 69 67 67 66 66 65
65 66 66 66 66 67 67 67 69 70 70 70 70 69 69 68 68 68 66 67 65 66
63 62 62 64 63 64 65 67 67 67 67 68 69 69 69 69 69 68 68 68 67 67
60 60 61 63 63 64 65 65 65 66 67 67 68 68 69 69 68 68 68 68 68 67
62 63 62 61 61 62 63 64 64 64 65 65 65 66 66 67 67 67 67 67 68 68
60 61 61 62 61 62 61 61 62 62 63 63 63 54 48 51 64 66 66 66 68 68
58 58 58 60 60 58 59 59 59 59 60 60 61 52 48 45 57 61 66 67 67 67
55 55 56 56 56 56 57 56 56 57 58 58 58 48 45 43 54 57 60 63 65 66
53 53 54 53 53 53 53 56 54 55 56 56 55 45 44 46 54 54 55 58 59 63
52 52 50 51 51 51 51 53 54 55 54 51 53 47 46 45 48 49 46 47 49 45
49 49 50 49 50 51 51 51 50 52 53 52 50 51 45 42 48 47 43 42 43 42
MSLP
1002.78 1003.28 1004.52 1005.45 1005.79 1005.94 1006.00 1006.13 1006.88 1007.71 1008.33 1008.80 1009.29 1009.79 1010.38 1010.84 1011.15 1011.48 1011.81 1011.91 1012.17 1012.35
1002.63 1003.11 1003.28 1004.19 1005.46 1006.01 1006.59 1006.21 1006.27 1006.95 1007.68 1008.12 1008.64 1009.01 1009.36 1009.77 1010.02 1010.41 1010.73 1010.88 1011.12 1011.38
1003.12 1003.29 1003.64 1002.74 1004.99 1004.87 1005.65 1006.13 1006.04 1006.13 1006.61 1007.04 1007.41 1007.85 1008.43 1008.79 1009.09 1009.54 1009.76 1009.87 1010.22 1010.24
1002.60 1003.11 1003.66 1004.23 1004.66 1004.60 1004.16 1005.39 1005.19 1004.88 1005.32 1005.97 1006.52 1007.05 1007.49 1007.61 1007.93 1008.28 1008.56 1008.99 1009.17 1009.20
1003.15 1003.52 1003.80 1004.01 1004.22 1002.84 1003.79 1004.04 1004.66 1004.28 1004.47 1005.09 1005.51 1005.86 1006.25 1006.66 1006.63 1006.89 1007.22 1007.58 1007.99 1007.98
1004.30 1004.22 1003.84 1004.11 1003.91 1004.78 1005.18 1004.02 1003.72 1004.14 1004.24 1004.51 1004.82 1005.24 1005.51 1005.76 1005.84 1005.64 1005.81 1006.13 1006.56 1006.82
1005.24 1005.02 1005.03 1004.74 1004.63 1004.39 1003.86 1003.25 1003.61 1003.72 1003.73 1003.92 1004.32 1004.61 1004.73 1005.05 1005.28 1005.09 1005.06 1005.15 1005.24 1005.57
1006.24 1005.67 1005.13 1004.70 1004.59 1004.25 1004.13 1004.08 1004.18 1003.92 1003.83 1004.00 1004.30 1004.21 1004.49 1004.49 1004.51 1004.35 1004.20 1004.18 1004.20 1004.24
1007.00 1006.41 1006.16 1005.66 1005.05 1004.98 1004.60 1004.24 1004.29 1004.39 1004.44 1004.25 1004.35 1003.97 1003.90 1003.96 1004.09 1003.85 1003.52 1003.39 1003.26 1003.15
1008.21 1007.80 1007.14 1006.81 1006.25 1005.74 1005.21 1004.81 1004.51 1004.36 1004.25 1004.28 1004.08 1003.93 1003.50 1003.19 1003.49 1003.39 1003.09 1002.60 1002.51 1002.45
1009.22 1008.68 1008.04 1007.33 1006.63 1005.87 1005.48 1004.87 1004.20 1003.73 1003.74 1003.74 1003.51 1003.09 1002.92 1003.27 1003.42 1003.18 1002.74 1002.36 1002.01 1001.83
1009.68 1009.26 1007.90 1007.23 1007.16 1006.52 1005.66 1005.06 1004.34 1003.87 1003.52 1003.25 1003.10 1002.48 1002.60 1002.91 1003.04 1002.88 1002.53 1002.06 1001.74 1001.68
1009.53 1009.12 1008.24 1007.11 1006.81 1006.16 1005.58 1005.03 1004.22 1003.34 1003.07 1002.57 1002.35 1002.24 1002.15 1002.67 1002.80 1002.92 1002.51 1002.11 1001.54 1001.26
1009.74 1009.03 1007.38 1006.59 1005.97 1005.52 1004.78 1004.32 1003.77 1003.34 1002.51 1002.02 1001.84 1001.85 1001.92 1002.35 1002.37 1002.34 1002.10 1001.95 1001.50 1001.03
Wind_Speed
23 14 12 10 9 11 12 13 13 14 14 15 14 13 12 10 11 13 12 17 13 11
16 17 15 10 6 6 8 7 8 9 12 12 13 14 14 11 13 12 13 14 14 12
9 10 9 6 9 8 6 7 7 9 12 14 14 14 14 12 13 13 11 11 13 14
7 7 6 4 6 11 8 12 15 13 13 13 12 12 13 15 15 15 15 13 14 15
3 3 5 2 4 2 13 10 9 8 10 11 12 13 14 16 15 17 16 17 15 17
7 1 2 4 5 10 10 6 5 6 6 8 9 11 13 15 16 16 17 17 16 16
9 6 5 4 3 4 4 5 3 3 5 5 7 8 10 12 14 14 15 16 16 16
15 13 8 7 6 6 4 4 5 5 5 5 5 4 7 9 12 13 14 15 15 15
14 13 14 13 10 7 6 5 2 3 5 5 4 9 12 7 9 10 12 14 15 16
14 15 14 13 10 9 8 5 5 5 4 5 5 10 10 9 4 7 11 12 13 13
11 11 12 11 12 13 10 8 6 5 5 5 5 6 4 6 4 6 8 10 13 15
12 14 11 12 11 11 9 10 8 6 7 6 7 4 3 3 4 5 8 8 9 12
15 16 15 12 12 7 6 9 9 10 8 8 7 8 7 2 2 7 5 7 8 11
15 16 15 14 12 12 11 10 9 10 10 8 6 6 5 3 3 5 5 5 7 6
Wind_Direction
207 201 208 215 213 212 201 206 197 203 208 213 211 212 207 210 216 218 218 225 222 228
207 207 195 191 191 213 233 218 193 189 204 212 214 214 210 214 220 218 220 225 226 222
210 218 247 151 207 186 185 190 186 186 198 208 213 213 210 216 223 220 223 225 223 225
176 166 153 179 185 195 175 207 210 204 207 214 214 214 214 218 221 219 223 223 225 226
88 163 172 209 298 359 231 222 213 205 206 215 218 215 217 223 220 221 220 225 222 229
30 133 163 161 164 223 231 221 209 211 216 223 226 228 229 232 232 225 224 225 227 228
4 4 354 9 7 358 350 353 327 270 237 229 234 232 233 235 238 238 234 231 230 227
356 348 349 7 6 8 8 348 328 324 316 284 263 253 244 239 236 235 235 232 232 230
353 354 352 343 345 337 335 339 315 271 258 263 262 251 260 246 261 251 241 245 240 236
352 345 344 337 337 313 308 282 270 276 262 253 237 252 276 290 288 278 278 263 257 253
337 331 328 328 327 326 320 299 291 284 274 267 265 254 296 318 294 278 276 278 278 262
328 317 317 318 309 302 304 312 289 264 268 271 275 237 231 227 266 265 272 276 274 276
314 307 301 299 297 283 282 287 292 284 258 254 272 267 283 263 232 282 272 271 263 266
297 290 295 296 296 297 298 300 294 277 274 270 253 285 302 275 230 243 269 278 289 274